Current Version              Previous Version:    01  02  03  04  05  06  07  08  09  10  11  12  13  14  15  16  17  18  19  20  21  22  23  24  25  26  27  28  29  30  
   31  32  33  34  35  36  37  38  39  40  41  42  43  44  45  46  47  48  49  50  51  52  53  54  55  56  57  58  59  60  

[Printable]
767
ASUS44 KFWD 162310
RWRTX
NORTH TEXAS HOURLY WEATHER ROUNDUP
NATIONAL WEATHER SERVICE FORT WORTH TX
600 PM CDT WED APR 16 2014

NOTE: "FAIR" INDICATES FEW OR NO CLOUDS BELOW 12,000 FEET WITH NO
SIGNIFICANT WEATHER AND/OR OBSTRUCTIONS TO VISIBILITY.

TXZ118-119-170000-
DALLAS/FORT WORTH METROPLEX

CITY           SKY/WX    TMP DP  RH WIND       PRES   REMARKS
DFW AIRPORT    PTSUNNY   68  40  35 S20G33    29.93F
DALLAS LOVE    PTSUNNY   68  39  34 S20G30    29.95F
FTW MEACHAM    MOSUNNY   68  41  37 SE18G29   29.91F
DAL-EXECUTIVE  SUNNY     67  39  35 S12G28    29.95S
FTW-ALLIANCE   MOSUNNY   66  40  38 S15G28    29.91F
FTW-NAS-JRB    PTSUNNY   71  36  27 S22       29.96F
FTW-SPINKS     SUNNY     68  41  37 S14G26    29.95S
ARLINGTON      SUNNY     67  40  37 S22G29    29.94R
ADDISON        MOSUNNY   66  36  32 S16G29    29.95
MESQUITE       SUNNY     66  39  37 SE15G22   29.97F
LANCASTER      SUNNY     66  40  38 S15G22    29.98R
$$

TXZ091>094-102>105-117-120-121-131>134-170000-
NORTH CENTRAL TEXAS

CITY           SKY/WX    TMP DP  RH WIND       PRES   REMARKS
SHRMAN/DENISON SUNNY     64  33  31 SE18G26   29.95F
GAINESVILLE    SUNNY     65  37  35 SE18G29   29.93S
BOWIE          SUNNY     67  37  32 SE15G25   29.88F
BRIDGEPORT     SUNNY     69  34  28 S17G24    29.91S
DECATUR        SUNNY     66  36  33 SE23G29   29.91S
DENTON         MOSUNNY   67  39  35 S21G28    29.92F
MCKINNEY       SUNNY     65  38  36 SE18      29.95F
GREENVILLE     SUNNY     64  32  29 SE16      29.98S
ROCKWALL       SUNNY     64  39  39 E14       29.96S
TERRELL        SUNNY     65  38  36 SE18G25   29.98F
WAXAHACHIE     MOSUNNY   65  39  39 S15G21    29.97S
CLEBURNE       MOSUNNY   66  41  39 S17G25    29.95S HAZE
GRANBURY       MOSUNNY   71  38  30 SE15G24   29.92S
$$

TXZ083>090-098>101-113>116-127>130-139>142-154-155-170000-
WESTERN NORTH TEXAS

CITY           SKY/WX    TMP DP  RH WIND       PRES   REMARKS
WICHITA FALLS  MOSUNNY   71  29  21 S23G30    29.83F
WF-KICKAPOO    SUNNY     72  28  19 S16G25    29.86S
VERNON         SUNNY     76  27  15 S21       29.81S
ABILENE        SUNNY     75  28  17 S20       29.81F
ABILENE-DYESS  SUNNY     77  29  17 S20G31    29.79F
BRECKENRIDGE   SUNNY     74  29  19 S17G26    29.84S
GRAHAM         SUNNY     72  34  24 SE16G24   29.83S
MINERAL WELLS  SUNNY     70  36  28 S23G30    29.87F
STEPHENVILLE   SUNNY     69  37  30 S20G26    29.92S
COMANCHE       SUNNY     72  36  26 S17G23    29.88S
BROWNWOOD      SUNNY     72  32  23 S16G26    29.87S
COLEMAN        SUNNY     74  30  20 S18       29.85S
$$

TXZ143>147-156>162-174-175-170000-
CENTRAL TEXAS

CITY           SKY/WX    TMP DP  RH WIND       PRES   REMARKS
WACO           MOSUNNY   68  44  42 S21G26    29.94F
WACO-MCGREGOR  SUNNY     68  43  40 S16G24    29.96F
HILLSBORO      MOSUNNY   67  43  41 SE20      29.95S
CORSICANA      PTSUNNY   67  42  40 SE17G25   29.99F
MEXIA          MOSUNNY   65  45  49 SE16      29.97F
HEARNE         MOSUNNY   68  46  45 SE10G21   30.00S
CAMERON        MOSUNNY   69  47  45 S14G20    29.97F
TEMPLE         SUNNY     68  43  40 SE22      29.97S
KILLEEN        MOSUNNY   70  43  37 SE23      29.92F
KILLEEN-SKYLRK SUNNY    N/A N/A N/A SE18      29.93F
FORT HOOD      SUNNY     71  44  37 SE21G26   29.92F
GATESVILLE     SUNNY     70  41  35 S17G24    29.94F
HAMILTON       SUNNY     70  37  30 S20G31    29.91F
LAMPASAS       SUNNY     71  42  35 S15       29.91F
$$

TXZ095>097-106>112-122>126-135>138-148>153-164>167-170000-
EAST TEXAS

CITY           SKY/WX    TMP DP  RH WIND       PRES   REMARKS
PARIS          MOSUNNY   63  37  39 SE14      30.00F
SULPHUR SPRNGS MOSUNNY   65  32  29 S13G18    30.01S
CLARKSVILLE    MOSUNNY   64  32  30 SE13      30.01S
MOUNT PLEASANT MOSUNNY   62  34  36 SE9       30.03F
GILMER         MOSUNNY   64  36  34 SE9       30.03S
MINEOLA        PTSUNNY   64  32  29 SE9       30.00F
TYLER          PTSUNNY   65  35  33 SE14      30.00F
LONGVIEW       PTSUNNY   63  34  33 SE9       30.02F
MARSHALL       MOSUNNY   65  32  28 S12       30.06S
ATHENS         MOSUNNY   63  37  39 S12G18    29.99S
PALESTINE      MOSUNNY   64  34  32 S7        30.03F
JACKSONVILLE   SUNNY     62  32  31 S8        30.04S
HENDERSON      MOSUNNY   64  32  29 S10       30.03F
NACOGDOCHES    MOSUNNY   63  36  36 SE7       30.05S
LUFKIN         SUNNY     68  35  29 SE12      30.04S
$$

SUPPLEMENTAL OBSERVATIONS (CENTRAL)

CITY           SKY/WX    TMP DP  RH WIND       PRES   REMARKS
CADDO GRASSLND   N/A     64  32  29 S9G21       N/A
PAT MAYSE LAKE   N/A     61  32  33 SE20        N/A
GREENVILLE       N/A     64  34  32 S13         N/A
CEDAR HILL       N/A     66  41  39 SE13G26     N/A
MCGREGOR         N/A     70  45  40 S21G26      N/A
$$

SUPPLEMENTAL OBSERVATIONS (WEST)

CITY           SKY/WX    TMP DP  RH WIND       PRES   REMARKS
MILLERS CREEK    N/A     75  30  19 S18G30      N/A
LBJ GRASSLAND    N/A     68  36  30 SE17G24     N/A
HAMBY            N/A     75  30  19 S20G26      N/A
IVIE RESERVOIR   N/A     75  30  19 SE16G23     N/A
COLORADO BEND    N/A     72  39  30 SE16G24     N/A
$$

SUPPLEMENTAL OBSERVATIONS (EAST)

CITY           SKY/WX    TMP DP  RH WIND       PRES   REMARKS
CLARKSVILLE      N/A     63  32  31 SE12        N/A
TEXARKANA        N/A     64  32  29 SE5         N/A
LINDEN           N/A     64  32  29 SE3G12      N/A
GILMER           N/A     64  34  32 SE8         N/A
HENDERSON        N/A     64  34  32 S7G16       N/A
LUFKIN           N/A     64  34  32 MISG        N/A
N SABINE NF      N/A     64  37  36 MISG        N/A
S SABINE NF      N/A     64  36  34 S3          N/A
$$

SUPPLEMENTAL OBSERVATIONS ARE A COLLECTION OF AUTOMATED INSTRUMENTS
THAT ARE MAINTAINED BY A VARIETY OF FEDERAL AND STATE AGENCIES.
CERTAIN ELEMENTS...SUCH AS HUMIDITY VALUES AND SUSTAINED WIND
SPEEDS...MAY BE APPROXIMATED.